This is the latest recevied weather packets stored in our database for station/object N4JTC. If no packets are shown the sender has not sent any weather packets the latest 10 day(s).
| Time | Temp. | Humidity | Pressure | Rain* | Wind** | Luminosity | Snow |
|---|---|---|---|---|---|---|---|
| 1777590903 | 26.67° C | 67% | 1010.6 hPa | 0 mm | - | 62 W/m² | - |
| 1777590603 | 26.67° C | 66% | 1010.6 hPa | 0 mm | - | 79 W/m² | - |
| 1777590303 | 26.67° C | 66% | 1010.8 hPa | 0 mm | - | 55 W/m² | - |
| 1777589703 | 27.22° C | 66% | 1010.7 hPa | 0 mm | - | 62 W/m² | - |
| 1777589403 | 27.22° C | 66% | 1010.8 hPa | 0 mm | - | 77 W/m² | - |
| 1777589103 | 26.67° C | 66% | 1010.8 hPa | 0 mm | - | 92 W/m² | - |
| 1777588503 | 27.22° C | 65% | 1010.7 hPa | 0 mm | - | 132 W/m² | - |
| 1777588204 | 26.67° C | 66% | 1010.6 hPa | 0 mm | - | 116 W/m² | - |
| 1777587903 | 26.67° C | 65% | 1010.9 hPa | 0 mm | - | 107 W/m² | - |
| 1777587603 | 26.67° C | 66% | 1010.9 hPa | 0 mm | - | 112 W/m² | - |
| 1777587303 | 26.67° C | 65% | 1010.9 hPa | 0 mm | - | 123 W/m² | - |
| 1777586703 | 26.67° C | 67% | 1011 hPa | 0 mm | - | 104 W/m² | - |
| 1777586403 | 27.22° C | 67% | 1011 hPa | 0 mm | - | 117 W/m² | - |
| 1777586103 | 26.67° C | 67% | 1011.2 hPa | 0 mm | - | 136 W/m² | - |
| 1777585803 | 27.22° C | 67% | 1011.1 hPa | 0 mm | - | 138 W/m² | - |
| 1777585503 | 27.22° C | 68% | 1011 hPa | 0 mm | - | 190 W/m² | - |
| 1777585202 | 27.22° C | 67% | 1011.2 hPa | 0 mm | - | 224 W/m² | - |
| 1777584904 | 27.22° C | 66% | 1011.2 hPa | 0 mm | - | 229 W/m² | - |
| 1777584303 | 27.22° C | 67% | 1011.1 hPa | 0 mm | - | 218 W/m² | - |
| 1777583703 | 27.22° C | 67% | 1011.2 hPa | 0 mm | - | 219 W/m² | - |
| 1777583103 | 26.67° C | 68% | 1011.2 hPa | 0 mm | - | 189 W/m² | - |
| 1777582803 | 26.67° C | 69% | 1011.5 hPa | 0 mm | - | 180 W/m² | - |
| 1777582503 | 26.67° C | 69% | 1011.4 hPa | 0 mm | - | 174 W/m² | - |
| 1777581903 | 26.11° C | 70% | 1011.8 hPa | 0 mm | - | 288 W/m² | - |
| 1777581603 | 26.11° C | 76% | 1011.6 hPa | 0 mm | - | 221 W/m² | - |
* Rain latest hour (hover to see other rain measurements)
** Current wind speed in m/s (hover to see current wind gust speed)